Date,TemperatureHighF,TemperatureAvgF,TemperatureLowF,DewpointHighF,DewpointAvgF,DewpointLowF,HumidityHigh,HumidityAvg,HumidityLow,PressureMaxIn,PressureMinIn,WindSpeedMaxMPH,WindSpeedAvgMPH,GustSpeedMaxMPH,PrecipitationSumIn
2013-1-10,34,24,15,8,3,1,70,43,24,30.26,29.91,2,0,0,0.00
2013-1-11,16,7,-4,10,-2,-16,84,68,53,30.11,29.51,3,1,0,0.00
2013-1-12,5,-5,-16,-14,-18,-23,72,55,33,30.50,30.11,2,0,0,0.00
2013-1-13,0,-8,-20,-9,-18,-27,75,62,44,30.66,30.49,2,0,0,0.00
2013-1-14,4,-10,-23,-9,-20,-30,77,62,47,30.81,30.66,2,0,0,0.00
2013-1-15,11,2,-10,4,-9,-22,72,60,45,30.84,30.58,9,2,0,0.00
2013-1-16,33,18,7,15,8,1,80,66,46,30.83,30.60,2,0,0,0.00
2013-1-17,34,17,3,13,4,-4,87,59,30,30.82,30.66,2,0,0,0.00
2013-1-18,33,25,17,3,-2,-5,39,31,23,30.66,30.35,6,2,0,0.00
2013-1-19,39,27,19,3,-2,-10,38,29,15,30.50,30.35,4,1,0,0.00
2013-1-20,35,26,21,5,-3,-13,44,28,18,30.39,30.27,3,1,0,0.00
2013-1-21,34,26,20,9,1,-11,47,35,19,30.40,30.29,3,1,0,0.00
2013-1-22,41,31,24,1,-7,-14,27,19,14,30.41,30.32,4,2,0,0.00
2013-1-23,47,34,23,4,-5,-15,38,19,12,30.41,30.27,4,1,0,0.00
2013-1-24,39,31,22,21,11,-7,69,44,19,30.27,30.03,8,3,0,0.00
2013-1-25,38,31,23,23,20,16,76,65,53,30.28,30.17,4,1,0,0.00
2013-1-26,35,28,22,26,19,9,90,69,47,30.17,29.83,1,0,0,0.00
2013-1-27,36,27,18,24,16,8,90,66,42,29.93,29.79,4,1,0,0.00
2013-1-28,29,19,10,21,10,0,86,70,52,29.88,29.70,2,0,0,0.00
2013-1-29,10,3,-2,2,-8,-12,78,60,41,30.35,29.79,4,1,0,0.00
2013-1-30,12,6,-1,8,-1,-12,83,73,57,30.50,30.31,5,2,0,0.00
2013-1-31,23,18,13,11,8,5,79,66,57,30.58,30.45,5,2,0,0.00
2013-2-1,25,19,14,10,8,6,72,62,50,30.48,30.35,5,3,0,0.00
2013-2-2,34,24,15,6,1,-6,62,38,21,30.61,30.48,5,2,0,0.00
2013-2-3,36,25,12,4,-4,-14,42,28,16,30.50,30.10,3,1,0,0.00
2013-2-4,20,18,13,-4,-5,-7,41,35,32,30.14,30.12,2,1,0,0.00
2013-2-8,24,22,20,17,15,10,85,75,55,30.14,30.03,1,0,0,0.00
2013-2-9,21,15,7,16,8,-3,87,73,56,30.03,29.61,3,1,0,0.00
2013-2-10,16,9,5,4,-2,-6,83,60,36,30.28,29.75,3,1,0,0.00
2013-2-11,12,4,-4,5,-2,-11,82,76,66,30.49,30.28,2,0,0,0.00
2013-2-12,22,8,-7,4,-3,-12,80,60,43,30.59,30.47,3,1,0,0.00
2013-2-13,25,16,9,9,4,0,70,59,40,30.52,30.31,4,2,0,0.00
2013-2-14,23,16,10,7,4,1,77,58,42,30.42,30.24,4,2,0,0.00
2013-2-15,19,12,8,4,1,-2,77,61,43,30.66,30.42,5,3,0,0.00
2013-2-16,33,22,15,12,5,-2,58,47,39,30.66,30.30,4,2,0,0.00
2013-2-17,37,25,15,10,-3,-14,71,31,17,30.29,29.77,6,2,0,0.00
2013-2-18,19,10,-5,5,-6,-16,75,50,33,30.48,29.77,5,2,0,0.00
2013-2-19,31,12,-8,3,-7,-19,64,45,24,30.58,30.18,2,0,0,0.00
2013-2-20,27,15,5,15,6,-4,85,68,45,30.18,29.76,2,0,0,0.00
2013-2-21,21,14,8,11,7,0,85,74,60,30.07,29.76,4,1,0,0.00
2013-2-22,18,9,0,7,-1,-7,80,64,46,30.27,30.07,4,1,0,0.00
2013-2-23,30,17,4,15,4,-8,73,55,44,30.26,29.86,5,2,0,0.00
2013-2-24,15,9,0,7,3,-5,85,77,64,30.37,29.80,2,0,0,0.00
2013-2-25,27,12,-2,6,-1,-8,80,57,32,30.47,30.21,3,1,0,0.00
2013-2-26,16,10,1,3,-1,-7,77,60,50,30.43,30.00,4,1,0,0.00
2013-2-27,18,7,-3,1,-6,-10,72,55,37,30.68,30.43,3,1,0,0.00
2013-2-28,22,12,3,7,-1,-10,77,55,38,30.70,30.60,5,2,0,0.00
2013-3-1,28,20,13,13,10,4,78,64,51,30.65,30.55,6,3,0,0.00
2013-3-2,39,28,20,19,13,8,69,53,39,30.65,30.28,4,2,0,0.00
2013-3-3,37,30,21,20,14,6,83,52,35,30.28,29.79,7,3,0,0.00
2013-3-4,31,19,6,20,10,-8,86,69,43,30.33,29.76,4,1,0,0.00
2013-3-5,39,22,5,1,-8,-16,51,27,15,30.57,30.32,4,1,0,0.00
2013-3-6,43,27,11,12,3,-5,54,38,21,30.40,30.11,3,1,0,0.00
2013-3-7,44,31,18,10,5,0,52,35,19,30.11,30.01,4,1,0,0.00
2013-3-8,39,25,14,22,13,3,88,62,39,30.08,29.75,3,0,0,0.00
2013-3-9,25,19,5,21,14,-1,89,80,72,30.19,29.63,3,0,0,0.00
2013-3-10,27,14,3,10,3,-3,79,62,45,30.51,30.19,4,2,0,0.00
2013-3-11,32,24,18,16,10,2,81,56,44,30.49,30.18,5,3,0,0.00
2013-3-12,35,26,20,17,14,11,81,60,44,30.41,30.22,5,3,0,0.00
2013-3-13,41,30,22,18,14,12,69,51,35,30.48,30.37,3,1,0,0.00
2013-3-14,47,35,25,16,12,9,61,41,21,30.47,30.32,3,1,0,0.00
2013-3-15,49,37,25,19,16,12,64,44,27,30.34,29.99,6,2,0,0.00
2013-3-16,36,30,24,25,20,15,83,64,48,30.00,29.77,4,1,0,0.00
2013-3-17,32,22,12,19,13,2,83,70,45,29.97,29.76,5,2,0,0.00
2013-3-18,23,17,12,12,7,0,85,64,49,30.25,29.97,5,2,0,0.00
2013-3-19,31,22,6,9,-2,-10,65,37,17,30.49,30.24,6,2,0,0.00
2013-3-20,30,15,6,18,-6,-15,67,38,21,30.49,30.01,4,1,0,0.00
2013-3-21,32,24,16,21,15,4,86,68,52,30.02,29.68,6,2,0,0.00
2013-3-22,30,18,4,13,2,-4,80,53,28,29.99,29.85,5,2,0,0.00
2013-3-23,14,6,-1,9,1,-6,86,78,68,30.48,29.88,1,0,0,0.00
2013-3-24,9,0,-10,2,-7,-16,80,72,65,30.70,30.48,3,0,0,0.00
2013-3-25,21,7,-7,2,-6,-14,75,57,33,30.75,30.66,3,1,0,0.00
2013-3-26,40,24,1,17,9,-7,75,55,33,30.67,30.21,4,2,0,0.00
2013-3-27,40,30,21,17,14,10,74,54,34,30.22,30.08,4,1,0,0.00
2013-3-28,44,28,14,22,14,7,76,58,32,30.32,30.21,3,1,0,0.00
2013-3-29,43,29,18,27,19,12,86,67,41,30.36,30.23,4,1,0,0.00
2013-3-30,43,33,23,24,18,-100,86,59,32,30.36,30.13,4,2,0,0.00
2013-3-31,45,30,14,18,12,9,83,53,25,30.27,30.16,4,1,0,0.00
2013-4-1,45,29,16,26,17,9,89,62,32,30.22,30.01,3,1,0,0.00
2013-4-2,35,27,23,25,22,19,89,81,62,30.14,29.95,3,0,0,0.00
2013-4-3,39,27,15,21,16,11,87,64,38,30.38,30.14,3,1,0,0.00
2013-4-4,46,34,20,21,16,11,77,50,30,30.37,30.17,4,1,0,0.00
2013-4-5,48,36,25,26,17,12,85,49,31,30.18,29.81,4,1,0,0.00
2013-4-6,43,33,26,22,17,10,76,53,31,29.98,29.88,4,2,0,0.00
2013-4-7,38,31,25,23,17,11,77,55,43,29.97,29.84,5,2,0,0.00
2013-4-8,44,31,19,27,20,14,88,65,35,29.90,29.50,4,1,0,0.00
2013-4-9,28,15,5,24,9,-1,87,79,66,30.14,29.54,2,0,0,0.00
2013-4-10,27,13,0,13,4,-5,83,67,52,30.33,30.14,5,2,0,0.00
2013-4-11,32,24,15,22,15,5,83,68,58,30.22,30.03,4,2,0,0.00
2013-4-12,36,26,19,21,15,9,85,63,39,30.13,29.99,5,1,0,0.00
2013-4-13,43,29,13,25,13,5,86,52,31,30.13,29.55,7,2,0,0.00
2013-4-14,29,22,17,25,14,7,89,71,47,29.88,29.52,4,2,0,0.00
2013-4-15,29,22,15,24,17,11,88,83,75,30.01,29.79,2,0,0,0.00
2013-4-16,41,24,14,26,18,11,88,78,40,30.03,29.81,6,1,0,0.00
2013-4-17,23,17,4,19,14,-2,89,85,80,30.15,29.77,0,0,0,0.00
2013-4-18,15,7,-1,5,-1,-6,82,68,54,30.66,30.14,5,2,0,0.00
2013-4-19,32,21,8,15,8,-2,66,57,45,30.66,30.26,5,2,0,0.00
2013-4-20,36,27,20,23,16,11,78,64,48,30.27,30.06,3,1,0,0.00
2013-4-21,39,29,21,21,15,12,79,57,34,30.24,30.15,4,2,0,0.00
2013-4-22,39,29,15,25,19,11,85,67,42,30.15,29.92,4,1,0,0.00
2013-4-23,25,14,8,16,8,2,83,77,62,30.49,30.04,4,1,0,0.00
2013-4-24,32,19,2,15,6,-4,80,58,37,30.58,30.47,4,1,0,0.00
2013-4-25,47,28,7,17,9,1,80,49,27,30.55,30.17,4,1,0,0.00
2013-4-26,45,33,21,17,11,7,67,42,22,30.39,30.19,3,1,0,0.00
2013-4-27,47,35,21,18,14,9,74,45,25,30.39,30.23,4,1,0,0.00
2013-4-28,53,40,27,21,17,9,61,39,26,30.25,29.95,4,1,0,0.00
2013-4-29,53,42,26,24,20,15,78,44,25,30.00,29.68,5,2,0,0.00
2013-4-30,54,46,36,28,20,16,72,36,27,29.68,29.53,5,2,0,0.00
2013-5-1,35,23,12,28,19,8,89,84,74,30.60,29.62,1,0,0,0.00
2013-5-2,29,16,0,14,6,-4,84,65,46,30.92,30.59,2,1,0,0.00
2013-5-3,45,31,14,21,11,5,72,46,24,30.81,30.22,3,1,0,0.00
2013-5-4,42,30,15,28,20,10,89,69,41,30.31,30.11,2,0,0,0.00
2013-5-5,44,31,18,28,22,14,88,70,35,30.32,30.17,2,0,0,0.00
2013-5-6,43,31,23,32,25,19,91,78,52,30.24,30.01,2,0,0,0.00
2013-5-7,35,30,27,27,25,23,87,81,72,30.09,30.00,3,0,0,0.00
2013-5-17,44,43,42,20,18,16,39,37,34,30.09,30.07,1,0,0,0.00
2013-5-18,52,40,32,29,22,13,84,51,30,30.09,29.83,4,1,0,0.00
2013-5-19,42,34,30,28,22,19,77,60,44,29.96,29.81,5,2,0,0.00
2013-5-20,45,35,28,30,23,19,82,63,46,30.09,29.92,4,2,0,0.00
2013-5-21,47,37,28,27,22,18,69,55,38,30.09,29.97,4,2,0,0.00
2013-5-22,58,42,26,32,24,19,79,54,25,30.01,29.88,3,1,0,0.00
2013-5-23,62,44,29,35,29,18,88,61,20,30.01,29.86,4,1,0,0.00
2013-5-24,63,47,27,34,24,15,89,49,17,29.97,29.88,4,1,0,0.00
2013-5-25,63,48,27,24,17,11,69,34,14,29.99,29.88,3,1,0,0.00
2013-5-26,65,50,32,29,19,16,62,32,15,29.91,29.73,4,1,0,0.00
2013-5-27,59,48,35,21,17,9,51,30,19,29.82,29.66,4,1,0,0.00
2013-5-28,59,44,26,27,20,14,73,42,19,29.76,29.59,4,1,0,0.00
2013-5-29,47,37,29,28,23,19,87,59,39,29.76,29.50,4,1,0,0.00
2013-5-30,45,36,29,26,22,17,86,58,33,29.98,29.74,6,2,0,0.00
2013-5-31,46,38,27,24,17,12,84,45,28,30.13,29.94,5,2,0,0.00
2013-6-1,55,42,29,25,20,14,67,44,29,30.20,30.11,4,1,0,0.00
2013-6-2,66,46,24,29,21,16,88,45,17,30.18,29.89,3,1,0,0.00
2013-6-3,65,50,33,28,23,18,61,37,20,29.89,29.72,5,1,0,0.00
2013-6-4,64,49,31,33,27,20,69,45,26,29.93,29.81,7,1,0,0.00
2013-6-5,62,46,28,41,29,19,92,59,21,30.00,29.88,4,1,0,0.00
2013-6-6,63,47,27,37,29,24,91,56,26,30.06,29.95,3,1,0,0.00
2013-6-7,59,44,30,42,32,27,94,67,36,30.04,29.89,6,0,0,0.00
2013-6-8,63,52,39,33,30,27,64,45,28,29.90,29.74,5,2,0,0.00
2013-6-9,70,55,38,31,28,23,65,37,21,29.93,29.85,4,1,0,0.00
2013-6-10,76,59,38,32,28,23,57,34,17,29.89,29.72,3,1,0,0.00
2013-6-11,71,59,46,29,23,18,46,26,14,29.80,29.64,5,2,0,0.00
2013-6-12,73,58,39,30,24,19,53,29,16,29.92,29.78,5,1,0,0.00
2013-6-13,71,56,37,37,28,20,69,37,20,29.93,29.78,6,1,0,0.00
2013-6-14,70,56,37,35,26,17,77,36,16,29.87,29.75,4,1,0,0.00
2013-6-15,67,55,30,30,26,19,76,36,18,30.00,29.84,4,1,0,0.00
2013-6-16,60,48,36,38,30,24,82,52,33,30.08,29.91,4,1,0,0.00
2013-6-17,64,45,30,38,31,26,90,63,26,30.15,30.05,4,1,0,0.00
2013-6-18,68,49,33,41,31,25,90,55,20,30.13,29.85,5,0,0,0.00
2013-6-19,71,50,28,38,23,12,87,43,12,29.90,29.71,5,1,0,0.00
2013-6-20,70,51,34,23,17,11,53,27,15,29.78,29.70,4,1,0,0.00
2013-6-22,69,62,44,24,21,18,35,21,17,29.79,29.65,4,2,0,0.00
2013-6-23,67,50,31,29,23,15,58,36,18,29.85,29.75,4,0,0,0.00
2013-6-24,66,51,32,38,24,17,86,42,17,29.85,29.78,3,1,0,0.00
2013-6-25,68,56,38,32,26,17,46,33,25,29.95,29.78,4,1,0,0.00
2013-6-26,77,59,36,35,31,23,67,37,20,30.00,29.89,3,1,0,0.00
2013-6-27,78,62,44,37,32,26,56,34,19,30.04,29.93,3,0,0,0.00
2013-6-28,77,61,40,41,33,24,76,41,15,30.05,29.92,2,1,0,0.00
2013-6-29,72,53,40,45,39,32,87,62,29,30.06,29.90,3,0,0,0.00
2013-6-30,67,50,36,47,39,33,94,71,33,30.14,29.99,3,0,0,0.00
2013-7-1,67,48,33,45,37,30,94,71,26,30.18,30.07,3,0,0,0.00
2013-7-2,68,50,34,44,35,28,94,64,24,30.18,30.01,3,1,0,0.00
2013-7-3,70,50,32,43,35,30,94,63,23,30.06,29.88,4,1,0,0.00
2013-7-4,71,56,43,43,37,33,87,52,26,29.94,29.77,3,0,0,0.00
2013-7-5,68,55,39,46,42,36,93,65,39,29.83,29.70,2,1,0,0.00
2013-7-6,69,55,45,47,41,38,86,63,33,29.85,29.76,3,1,0,0.00
2013-7-7,67,53,41,49,42,38,93,71,38,29.98,29.84,2,0,0,0.00
2013-7-8,70,54,37,50,39,32,95,63,28,30.03,29.97,3,1,0,0.00
2013-7-9,71,56,40,42,37,31,77,52,28,30.09,30.00,2,0,0,0.00
2013-7-10,71,55,42,48,39,-100,83,59,37,30.09,29.91,2,0,0,0.00
2013-7-11,76,57,38,48,40,35,93,58,25,30.00,29.76,2,0,0,0.00
2013-7-12,69,56,47,52,43,37,85,64,36,29.87,29.69,2,0,0,0.00
2013-7-13,70,54,46,51,46,42,91,75,37,30.00,29.87,1,0,0,0.00
2013-7-14,66,51,39,51,44,37,94,80,49,30.07,29.97,2,0,0,0.00
2013-7-15,60,49,42,51,45,40,95,88,65,30.07,29.96,2,0,0,0.00
2013-7-16,65,52,39,47,42,37,94,72,43,30.12,30.00,2,0,0,0.00
2013-7-17,47,40,36,42,36,33,94,87,76,30.13,30.09,0,0,0,0.00
2013-7-18,50,48,47,44,28,-100,85,74,78,30.10,30.06,0,0,0,0.00
2013-7-19,64,52,45,49,44,40,92,76,49,30.08,29.94,2,0,0,0.00
2013-7-20,72,56,38,45,37,29,94,57,21,30.01,29.80,3,1,0,0.00
2013-7-21,74,57,39,44,34,25,92,52,17,29.85,29.76,3,1,0,0.00
2013-7-22,74,58,40,36,29,22,72,39,16,29.92,29.82,3,1,0,0.00
2013-7-23,76,58,39,39,27,21,56,35,16,29.97,29.85,3,0,0,0.00
2013-7-24,68,53,41,48,41,36,88,65,42,29.99,29.82,2,0,0,0.00
2013-7-25,63,48,39,45,41,37,93,77,43,30.19,29.97,3,0,0,0.00
2013-7-26,66,50,35,48,39,33,95,72,32,30.22,30.12,1,0,0,0.00
2013-7-27,67,51,36,46,40,34,94,70,38,30.16,29.85,4,0,0,0.00
2013-7-28,58,49,44,48,43,39,94,81,53,29.90,29.77,3,0,0,0.00
2013-7-29,64,52,41,45,40,37,87,66,42,30.04,29.88,4,1,0,0.00
2013-7-30,66,53,36,40,37,33,89,57,32,30.17,30.04,5,1,0,0.00
2013-7-31,70,55,36,40,36,31,85,53,28,30.20,30.04,2,0,0,0.00
2013-8-1,68,52,38,46,39,35,92,64,35,30.07,29.91,3,1,0,0.00
2013-8-2,70,58,47,43,39,33,69,50,27,29.95,29.83,4,1,0,0.00
2013-8-3,70,54,40,43,39,35,84,59,30,30.08,29.89,3,0,0,0.00
2013-8-4,71,52,37,44,39,34,93,66,30,30.09,29.98,3,0,0,0.00
2013-8-5,67,49,38,49,40,35,93,74,36,30.06,29.96,2,0,0,0.00
2013-8-6,68,50,39,43,39,35,94,71,29,30.05,29.97,2,0,0,0.00
2013-8-7,53,44,38,45,39,34,92,84,65,30.10,29.98,1,0,0,0.00
2013-8-8,61,46,38,41,36,34,92,70,37,30.13,30.01,3,0,0,0.00
2013-8-9,57,44,34,42,37,31,92,75,48,30.26,30.11,2,0,0,0.00
2013-8-10,66,49,30,43,32,26,94,61,22,30.27,30.13,3,0,0,0.00
2013-8-11,63,49,38,45,37,33,87,64,40,30.14,29.99,2,0,0,0.00
2013-8-12,60,46,34,42,37,32,94,72,41,30.17,30.09,1,0,0,0.00
2013-8-13,64,48,32,41,33,-100,94,62,32,30.17,30.08,3,1,0,0.00
2013-8-14,65,49,34,36,29,-100,87,54,26,30.16,30.08,4,1,0,0.00
2013-8-15,68,46,34,31,13,-100,74,41,23,30.14,30.03,4,1,0,0.00
2013-8-16,71,53,33,36,26,-100,75,42,20,30.14,30.06,3,1,0,0.00
2013-8-17,72,54,37,37,28,-100,70,43,21,30.13,29.95,2,0,0,0.00
2013-8-18,68,51,39,47,37,29,89,61,30,30.11,29.94,2,0,0,0.00
2013-8-19,71,49,36,45,27,-100,92,60,26,30.13,30.01,3,0,0,0.00
2013-8-20,74,54,37,40,34,-100,88,55,24,30.06,29.93,2,0,0,0.00
2013-8-21,68,53,41,46,39,34,81,62,36,30.04,29.91,2,0,0,0.00
2013-8-22,64,53,43,51,44,37,88,71,50,30.08,29.95,2,0,0,0.00
2013-8-23,64,52,38,50,42,36,94,70,39,30.07,29.87,5,0,0,0.00
2013-8-24,64,49,39,46,38,-100,89,70,41,30.06,29.90,3,0,0,0.00
2013-8-25,62,50,39,48,44,37,94,78,50,30.12,30.03,1,0,0,0.00
2013-8-26,69,52,42,49,44,40,94,76,43,30.11,29.98,3,0,0,0.00
2013-8-27,69,48,40,50,42,38,100,81,36,30.09,30.03,2,0,0,0.00
2013-8-28,73,67,47,47,39,32,92,40,23,30.06,29.93,2,1,0,0.00
2013-8-29,66,49,38,52,43,36,95,81,46,30.22,30.05,2,0,0,0.00
2013-8-30,66,52,45,48,44,41,88,74,46,30.18,30.01,1,0,0,0.00
2013-8-31,65,51,43,48,42,-100,90,76,43,30.05,29.96,2,0,0,0.00
2013-9-1,46,45,44,43,43,42,93,92,90,30.06,30.01,0,0,0,0.00
2013-9-4,57,50,45,53,47,42,93,90,81,30.23,30.11,0,0,0,0.00
2013-9-5,71,54,41,49,43,36,95,70,28,30.21,30.06,2,0,0,0.00
2013-9-6,73,56,39,44,40,34,92,58,25,30.09,29.94,2,0,0,0.00
2013-9-7,72,53,38,44,37,-100,90,61,27,30.01,29.89,2,0,0,0.00
2013-9-8,67,53,39,44,40,33,88,64,28,29.94,29.75,3,0,0,0.00
2013-9-9,62,51,38,46,41,35,92,71,43,29.85,29.72,2,0,0,0.00
2013-9-10,48,46,45,47,44,43,95,94,92,30.09,29.85,1,0,0,0.00
2013-9-11,52,47,44,49,45,42,95,93,87,30.12,30.02,1,0,0,0.00
2013-9-28,33,28,28,20,8,-100,63,55,57,30.30,30.29,0,0,0,0.00
2013-9-29,55,41,27,21,16,12,61,38,24,30.29,30.04,5,1,0,0.00
2013-9-30,64,50,38,34,26,18,57,39,30,30.06,29.78,5,2,0,0.00
2013-10-1,55,43,34,30,28,22,72,55,27,29.96,29.91,0,0,0,0.00
2013-10-2,59,40,27,26,22,19,77,52,23,30.02,29.88,2,0,0,0.00
2013-10-3,56,44,28,24,21,18,68,43,23,29.91,29.64,4,1,0,0.00
2013-10-4,40,26,17,26,12,5,79,58,40,30.27,29.56,4,2,0,0.00
2013-10-5,37,26,17,10,5,3,64,43,25,30.54,30.26,5,3,0,0.00
2013-10-6,53,37,23,25,17,6,64,45,32,30.53,30.36,3,1,0,0.00
2013-10-7,63,41,24,20,15,9,63,39,15,30.37,30.05,1,0,0,0.00
2013-10-8,59,43,29,23,19,14,61,40,18,30.05,29.75,3,0,0,0.00
2013-10-9,53,38,26,27,21,18,78,54,29,29.97,29.82,2,0,0,0.00
2013-10-10,40,33,27,32,24,14,87,69,54,29.97,29.62,7,1,0,0.00
2013-10-11,33,29,26,20,18,17,76,66,57,30.19,29.65,7,3,0,0.00
2013-10-12,46,30,17,22,14,-100,82,56,26,30.36,30.18,2,0,0,0.00
2013-10-13,49,35,20,30,24,16,88,65,33,30.30,30.00,3,0,0,0.00
2013-10-14,36,29,25,26,20,15,91,70,51,30.22,29.81,6,2,0,0.00
2013-10-15,31,24,19,24,18,14,89,79,60,30.32,30.20,1,0,0,0.00
2013-10-16,32,24,17,19,15,5,90,69,44,30.32,30.24,4,1,0,0.00
2013-10-17,39,28,18,17,9,2,69,45,27,30.30,30.10,4,1,0,0.00
2013-10-18,28,22,18,18,10,3,82,59,41,30.41,30.07,5,1,0,0.00
2013-10-19,41,30,22,18,12,-100,62,49,37,30.40,30.11,6,2,0,0.00
2013-10-20,40,32,24,21,16,12,82,52,39,30.12,29.95,4,2,0,0.00
2013-10-21,39,28,17,17,13,8,83,56,35,30.40,30.13,4,1,0,0.00
2013-10-22,50,36,26,21,18,15,65,48,29,30.41,30.24,3,1,0,0.00
2013-10-23,52,36,25,20,16,12,65,46,23,30.29,30.19,2,0,0,0.00
2013-10-24,52,37,21,19,15,12,70,44,23,30.35,30.24,1,0,0,0.00
2013-10-25,46,38,27,26,21,16,71,52,34,30.33,30.19,2,0,0,0.00
2013-10-26,49,34,20,24,17,-100,84,56,29,30.42,30.32,2,0,0,0.00
2013-10-27,47,35,25,20,16,12,64,47,29,30.34,29.98,3,1,0,0.00
2013-10-28,45,31,20,25,15,-100,78,56,31,30.01,29.91,3,0,0,0.00
2013-10-29,40,32,26,24,16,11,90,53,34,30.01,29.80,3,1,0,0.00
2013-10-30,34,23,13,24,13,8,90,65,41,30.04,29.80,3,1,0,0.00
2013-10-31,29,22,18,15,11,8,78,63,52,30.23,30.03,7,3,0,0.00
2013-11-1,31,25,21,18,14,3,83,62,36,30.47,30.19,7,3,0,0.00
2013-11-2,50,27,15,10,0,-100,60,35,15,30.47,30.01,2,0,0,0.00
2013-11-3,42,32,21,20,11,0,85,44,29,30.01,29.63,6,1,0,0.00
2013-11-4,35,22,9,16,10,4,92,62,32,30.06,29.80,3,1,0,0.00
2013-11-5,22,15,8,16,5,-10,88,63,39,30.51,29.99,4,1,0,0.00
2013-11-6,28,20,10,12,6,-10,64,54,37,30.71,30.50,6,2,0,0.00
2013-11-7,43,31,20,19,14,9,66,50,34,30.68,30.23,4,1,0,0.00
2013-11-8,42,35,27,16,13,9,56,41,32,30.22,29.88,7,2,0,0.00
2013-11-9,46,34,25,17,11,-100,60,41,28,30.32,30.15,2,0,0,0.00
2013-11-10,46,34,25,16,13,9,60,44,29,30.37,30.29,3,0,0,0.00
2013-11-11,45,32,24,15,13,11,62,47,28,30.58,30.33,2,1,0,0.00
2013-11-12,45,27,21,17,12,5,68,54,29,30.70,30.58,1,0,0,0.00
2013-11-13,45,34,24,15,9,3,50,36,25,30.62,30.12,3,0,0,0.00
2013-11-14,39,29,17,18,10,-1,71,48,20,30.11,29.96,3,0,0,0.00
2013-11-15,37,28,17,22,13,0,89,56,34,29.94,29.64,4,1,0,0.00
2013-11-16,31,23,18,19,12,-100,88,67,45,29.69,29.51,7,3,0,0.00
2013-11-17,30,22,17,14,12,4,83,66,49,30.38,29.68,7,4,0,0.00
2013-11-18,45,28,17,12,6,0,60,41,21,30.48,30.27,5,1,0,0.00
2013-11-19,39,28,17,20,13,4,71,55,36,30.27,29.94,5,1,0,0.00
2013-11-20,37,29,22,21,17,14,85,61,39,29.98,29.89,3,1,0,0.00
2013-11-21,25,23,12,22,20,7,90,88,86,30.45,29.95,0,0,0,0.00
2013-11-22,23,15,9,19,12,6,88,86,84,30.81,30.45,0,0,0,0.00
2013-11-23,20,16,13,15,12,-100,88,83,79,30.81,30.59,0,0,0,0.00
2013-11-24,29,21,10,24,17,6,91,84,80,30.59,30.16,2,1,0,0.00
2013-11-25,27,20,14,17,13,9,81,75,66,30.47,30.17,2,1,0,0.00
2013-11-26,29,22,10,14,11,6,85,64,52,30.77,30.61,2,0,0,0.00
2013-11-27,40,24,11,17,11,6,81,61,35,30.68,30.44,2,0,0,0.00
2013-11-28,35,20,8,16,10,4,84,66,42,30.55,30.42,1,0,0,0.00
2013-11-29,35,25,9,14,9,3,78,52,38,30.54,30.44,4,1,0,0.00
2013-11-30,35,24,13,8,3,-100,61,40,30,30.47,30.33,4,1,0,0.00
2013-12-1,32,25,14,18,9,2,71,51,40,30.40,30.15,7,4,0,0.00
2013-12-2,33,27,24,18,16,13,75,63,49,30.15,29.81,7,4,0,0.00
2013-12-3,27,24,20,21,18,12,89,79,56,29.80,29.52,2,0,0,0.00
2013-12-4,22,13,-9,19,8,-15,89,80,69,30.03,29.39,2,0,0,0.00
2013-12-5,5,-7,-19,-4,-14,-25,80,71,59,30.56,30.07,1,0,0,0.00
2013-12-6,6,0,-18,-4,-9,-24,80,66,59,30.81,30.58,1,0,0,0.00
2013-12-7,9,2,-10,2,-5,-100,83,76,73,30.76,30.21,1,0,0,0.00
2013-12-8,6,1,-10,1,-6,-17,83,71,56,30.36,30.02,3,0,0,0.00
2013-12-9,4,-3,-11,-7,-14,-17,72,60,51,30.89,30.36,6,2,0,0.00